AAL659 KIND-KLAX

Flight info

Callsign AAL659
Flight time 2h 39m
Altitude 28000
Route ROCKY1 SPI MCI HGO DVC/N0498F300 PEEWE Q98 HAKMN ANJLL4
Aircraft B77W/H-SDE1E2E3FGHIJ2J3J4J5M1RWXY/LB1D1

Departure

Time 2026-05-06 02:46
Airport Indianapolis International Airport (KIND)

Arrival

Time 2026-05-06 05:25
Airport Los Angeles International Airport (KLAX)
Time Latitude Longitude Altitude Speed Heading
2026-05-06 02:19 39.71394 -86.29563 791 ft 0 kts 295°
2026-05-06 02:34 39.71394 -86.29562 819 ft 1 kts 295°
2026-05-06 02:34 39.71387 -86.29544 791 ft 3 kts 295°
2026-05-06 02:34 39.71379 -86.29520 790 ft 3 kts 295°
2026-05-06 02:35 39.71371 -86.29496 790 ft 3 kts 295°
2026-05-06 02:35 39.71363 -86.29472 790 ft 3 kts 295°
2026-05-06 02:35 39.71355 -86.29448 790 ft 3 kts 295°
2026-05-06 02:35 39.71347 -86.29426 790 ft 3 kts 292°
2026-05-06 02:36 39.71342 -86.29403 790 ft 3 kts 258°
2026-05-06 02:36 39.71350 -86.29381 790 ft 3 kts 224°
2026-05-06 02:36 39.71365 -86.29365 791 ft 3 kts 213°
2026-05-06 02:36 39.71382 -86.29350 791 ft 2 kts 224°
2026-05-06 02:37 39.71386 -86.29344 791 ft 1 kts 230°
2026-05-06 02:40 39.71386 -86.29345 791 ft 0 kts 230°
2026-05-06 02:40 39.71373 -86.29361 791 ft 4 kts 221°
2026-05-06 02:41 39.71361 -86.29373 791 ft 6 kts 214°
2026-05-06 02:41 39.71284 -86.29391 789 ft 13 kts 180°
2026-05-06 02:41 39.71193 -86.29384 791 ft 13 kts 179°
2026-05-06 02:41 39.71104 -86.29404 791 ft 13 kts 201°
2026-05-06 02:42 39.71026 -86.29464 790 ft 13 kts 221°
2026-05-06 02:42 39.70961 -86.29547 791 ft 13 kts 224°
2026-05-06 02:42 39.70865 -86.29669 794 ft 27 kts 224°
2026-05-06 02:42 39.70721 -86.29851 797 ft 28 kts 224°
2026-05-06 02:43 39.70582 -86.30032 795 ft 28 kts 225°
2026-05-06 02:43 39.70440 -86.30211 792 ft 28 kts 224°
2026-05-06 02:43 39.70299 -86.30391 793 ft 28 kts 224°
2026-05-06 02:43 39.70193 -86.30524 794 ft 15 kts 219°
2026-05-06 02:44 39.70112 -86.30532 796 ft 12 kts 143°
2026-05-06 02:44 39.70054 -86.30460 797 ft 9 kts 135°
2026-05-06 02:44 39.70055 -86.30417 796 ft 5 kts 67°
2026-05-06 02:44 39.70073 -86.30383 796 ft 1 kts 45°
2026-05-06 02:45 39.70077 -86.30378 795 ft 7 kts 45°
2026-05-06 02:45 39.70270 -86.30133 792 ft 77 kts 44°
2026-05-06 02:46 39.70831 -86.29417 793 ft 147 kts 44°
2026-05-06 02:46 39.71681 -86.28306 847 ft 190 kts 45°
2026-05-06 02:46 39.72593 -86.27082 1482 ft 191 kts 44°
2026-05-06 02:46 39.73567 -86.25927 2281 ft 188 kts 39°
2026-05-06 02:47 39.74553 -86.24766 2829 ft 197 kts 40°
2026-05-06 02:47 39.75635 -86.23479 3036 ft 224 kts 40°
2026-05-06 02:47 39.76824 -86.22086 3494 ft 239 kts 40°
2026-05-06 02:47 39.78096 -86.20580 3979 ft 253 kts 40°
2026-05-06 02:48 39.79598 -86.19384 4445 ft 259 kts 11°
2026-05-06 02:48 39.81382 -86.19521 5047 ft 262 kts 335°
2026-05-06 02:48 39.82826 -86.20932 5748 ft 263 kts 306°
2026-05-06 02:48 39.83663 -86.23031 6449 ft 264 kts 284°
2026-05-06 02:49 39.83889 -86.25371 7204 ft 260 kts 266°
2026-05-06 02:49 39.83813 -86.26921 7757 ft 258 kts 263°
2026-05-06 02:49 39.83534 -86.30010 8891 ft 256 kts 261°
2026-05-06 02:49 39.83305 -86.32304 9721 ft 256 kts 260°
2026-05-06 02:50 39.83076 -86.34603 10383 ft 260 kts 260°
2026-05-06 02:50 39.82921 -86.36183 10583 ft 273 kts 261°
2026-05-06 02:50 39.82672 -86.38742 10763 ft 297 kts 261°
2026-05-06 02:50 39.82409 -86.41514 10954 ft 321 kts 261°
2026-05-06 02:51 39.82136 -86.44469 11393 ft 335 kts 261°
2026-05-06 02:51 39.81861 -86.47503 12142 ft 340 kts 262°
2026-05-06 02:51 39.81588 -86.50572 13063 ft 342 kts 262°
2026-05-06 02:51 39.81315 -86.53654 13988 ft 344 kts 262°
2026-05-06 02:52 39.81041 -86.56754 14792 ft 347 kts 262°
2026-05-06 02:52 39.80764 -86.59893 15531 ft 352 kts 262°
2026-05-06 02:52 39.80481 -86.63073 16312 ft 356 kts 262°
2026-05-06 02:52 39.80195 -86.66287 17066 ft 360 kts 262°
2026-05-06 02:53 39.79905 -86.69536 17822 ft 364 kts 262°
2026-05-06 02:53 39.79611 -86.72825 18508 ft 368 kts 262°
2026-05-06 02:53 39.79314 -86.76138 19188 ft 370 kts 262°
2026-05-06 02:53 39.79015 -86.79471 19900 ft 372 kts 262°
2026-05-06 02:54 39.78713 -86.82816 20583 ft 374 kts 261°
2026-05-06 02:54 39.78407 -86.86183 21246 ft 377 kts 261°
2026-05-06 02:54 39.78099 -86.89578 21886 ft 379 kts 261°
2026-05-06 02:54 39.77786 -86.93000 22516 ft 382 kts 261°
2026-05-06 02:55 39.77471 -86.96445 23091 ft 387 kts 261°
2026-05-06 02:55 39.77149 -86.99943 23544 ft 392 kts 261°
2026-05-06 02:55 39.76824 -87.03470 24068 ft 394 kts 261°
2026-05-06 02:55 39.76498 -87.07003 24687 ft 393 kts 262°
2026-05-06 02:56 39.76172 -87.10522 25282 ft 392 kts 262°
2026-05-06 02:56 39.75845 -87.14043 25837 ft 393 kts 262°
2026-05-06 02:56 39.75515 -87.17581 26368 ft 394 kts 263°
2026-05-06 02:56 39.75184 -87.21119 26883 ft 395 kts 263°
2026-05-06 02:57 39.74850 -87.24669 27393 ft 396 kts 263°
2026-05-06 02:57 39.74514 -87.28228 27858 ft 398 kts 263°
2026-05-06 02:57 39.74174 -87.31829 27866 ft 406 kts 263°
2026-05-06 02:57 39.73828 -87.35492 28000 ft 412 kts 263°
2026-05-06 02:58 39.73474 -87.39203 28211 ft 416 kts 263°
2026-05-06 02:58 39.73121 -87.42893 28498 ft 417 kts 263°
2026-05-06 02:58 39.72495 -87.49402 29297 ft 413 kts 264°
2026-05-06 02:58 39.69863 -87.76454 32112 ft 399 kts 264°
2026-05-06 02:59 39.67008 -88.04962 33793 ft 403 kts 263°
2026-05-06 02:59 39.64023 -88.34055 33998 ft 409 kts 263°
2026-05-06 02:59 39.60970 -88.63083 33902 ft 399 kts 263°
2026-05-06 02:59 39.60894 -88.91008 33841 ft 392 kts 286°
2026-05-06 03:00 39.68905 -89.16864 33967 ft 383 kts 285°
2026-05-06 03:00 39.83485 -89.69668 33982 ft 385 kts 272°
2026-05-06 03:01 39.78863 -90.24979 33943 ft 386 kts 264°
2026-05-06 03:01 39.73623 -90.80276 33993 ft 384 kts 263°
2026-05-06 03:01 39.70914 -91.07781 34096 ft 383 kts 263°
2026-05-06 03:02 39.68158 -91.35172 33986 ft 382 kts 263°
2026-05-06 03:02 39.62455 -91.89718 33958 ft 382 kts 262°
2026-05-06 03:03 39.58224 -92.28713 33993 ft 383 kts 261°
2026-05-06 03:03 39.55251 -92.55342 33974 ft 380 kts 261°
2026-05-06 03:04 39.49027 -93.09400 33998 ft 378 kts 261°
2026-05-06 03:04 39.42580 -93.63144 34000 ft 378 kts 260°
2026-05-06 03:05 39.35873 -94.16878 33999 ft 379 kts 260°
2026-05-06 03:05 39.28967 -94.70175 34017 ft 378 kts 259°
2026-05-06 03:06 39.27660 -95.24489 34005 ft 376 kts 265°
2026-05-06 03:06 39.26529 -95.78473 33980 ft 373 kts 265°
2026-05-06 03:07 39.25153 -96.31977 34025 ft 373 kts 265°
2026-05-06 03:07 39.23528 -96.85704 34022 ft 375 kts 264°
2026-05-06 03:08 39.21663 -97.39261 34014 ft 377 kts 264°
2026-05-06 03:08 39.19537 -97.93201 34049 ft 377 kts 264°
2026-05-06 03:09 39.17162 -98.47111 34033 ft 376 kts 264°
2026-05-06 03:09 39.14545 -99.00825 34044 ft 376 kts 264°
2026-05-06 03:10 39.11681 -99.54490 34040 ft 376 kts 263°
2026-05-06 03:10 39.10795 -99.70219 34061 ft 375 kts 263°
2026-05-06 03:11 39.10476 -99.75789 34068 ft 375 kts 263°
2026-05-06 03:11 39.10023 -99.83621 34070 ft 376 kts 263°
2026-05-06 03:12 39.09630 -99.90335 34048 ft 376 kts 263°
2026-05-06 03:12 39.09233 -99.97050 34057 ft 377 kts 263°
2026-05-06 03:13 39.08833 -100.03774 34050 ft 377 kts 263°
2026-05-06 03:13 39.08428 -100.10496 34052 ft 377 kts 263°
2026-05-06 03:14 39.08022 -100.17180 34057 ft 377 kts 263°
2026-05-06 03:14 39.07609 -100.23907 34046 ft 377 kts 263°
2026-05-06 03:15 39.07192 -100.30635 34046 ft 377 kts 263°
2026-05-06 03:15 39.06779 -100.37244 34064 ft 377 kts 263°
2026-05-06 03:16 39.06346 -100.44088 34073 ft 376 kts 263°
2026-05-06 03:16 39.05920 -100.50793 34063 ft 376 kts 263°
2026-05-06 03:17 39.05489 -100.57512 34064 ft 377 kts 263°
2026-05-06 03:17 39.05052 -100.64248 34072 ft 378 kts 263°
2026-05-06 03:18 39.04610 -100.71000 34064 ft 379 kts 263°
2026-05-06 03:18 39.04164 -100.77757 34061 ft 379 kts 263°
2026-05-06 03:19 39.03714 -100.84517 34058 ft 379 kts 263°
2026-05-06 03:19 39.03260 -100.91277 34059 ft 379 kts 263°
2026-05-06 03:20 39.02572 -101.01408 34058 ft 379 kts 263°
2026-05-06 03:20 39.02108 -101.08156 34053 ft 379 kts 263°
2026-05-06 03:21 39.01642 -101.14895 34051 ft 378 kts 263°
2026-05-06 03:21 39.01171 -101.21634 34056 ft 378 kts 263°
2026-05-06 03:22 39.00697 -101.28374 34056 ft 378 kts 263°
2026-05-06 03:22 39.00219 -101.35111 34058 ft 379 kts 262°
2026-05-06 03:23 38.99735 -101.41867 34053 ft 380 kts 262°
2026-05-06 03:23 38.99247 -101.48635 34071 ft 380 kts 262°
2026-05-06 03:24 38.98754 -101.55410 34058 ft 381 kts 262°
2026-05-06 03:24 38.98257 -101.62186 34051 ft 381 kts 262°
2026-05-06 03:25 38.97755 -101.68974 34166 ft 383 kts 262°
2026-05-06 03:25 38.97504 -101.72345 34304 ft 384 kts 262°
2026-05-06 03:25 38.97249 -101.75761 34563 ft 383 kts 262°
2026-05-06 03:26 38.96994 -101.79165 34796 ft 383 kts 262°
2026-05-06 03:26 38.96738 -101.82567 34966 ft 383 kts 262°
2026-05-06 03:26 38.96480 -101.85982 35148 ft 384 kts 262°
2026-05-06 03:26 38.96222 -101.89390 35339 ft 384 kts 262°
2026-05-06 03:27 38.95962 -101.92801 35533 ft 384 kts 261°
2026-05-06 03:27 38.95701 -101.96218 35720 ft 384 kts 261°
2026-05-06 03:27 38.95440 -101.99621 35960 ft 383 kts 261°
2026-05-06 03:27 38.95178 -102.03026 35976 ft 382 kts 261°
2026-05-06 03:28 38.94655 -102.09786 36043 ft 380 kts 261°
2026-05-06 03:28 38.94128 -102.16530 36059 ft 380 kts 261°
2026-05-06 03:29 38.93597 -102.23286 36066 ft 381 kts 261°
2026-05-06 03:29 38.93058 -102.30065 36061 ft 383 kts 261°
2026-05-06 03:30 38.92515 -102.36872 36064 ft 384 kts 261°
2026-05-06 03:30 38.91966 -102.43704 36055 ft 386 kts 261°
2026-05-06 03:31 38.91409 -102.50575 36064 ft 388 kts 261°
2026-05-06 03:31 38.90844 -102.57490 36063 ft 390 kts 261°
2026-05-06 03:32 38.90273 -102.64439 36056 ft 392 kts 261°
2026-05-06 03:32 38.89696 -102.71406 36053 ft 393 kts 261°
2026-05-06 03:33 38.89115 -102.78373 36040 ft 393 kts 261°
2026-05-06 03:33 38.88529 -102.85352 36050 ft 394 kts 261°
2026-05-06 03:34 38.87936 -102.92351 36042 ft 395 kts 261°
2026-05-06 03:34 38.87337 -102.99370 36041 ft 396 kts 261°
2026-05-06 03:35 38.86733 -103.06407 36036 ft 397 kts 261°
2026-05-06 03:35 38.86227 -103.12264 36032 ft 397 kts 261°
2026-05-06 03:36 38.85613 -103.19321 36028 ft 399 kts 260°
2026-05-06 03:36 38.84993 -103.26399 36031 ft 400 kts 260°
2026-05-06 03:37 38.84366 -103.33500 36034 ft 401 kts 260°
2026-05-06 03:37 38.83733 -103.40628 36018 ft 402 kts 260°
2026-05-06 03:38 38.83095 -103.47761 36023 ft 403 kts 260°
2026-05-06 03:38 38.82453 -103.54903 36013 ft 404 kts 260°
2026-05-06 03:39 38.81779 -103.62056 36017 ft 404 kts 258°
2026-05-06 03:39 38.80661 -103.69106 36013 ft 404 kts 256°
2026-05-06 03:40 38.79479 -103.76138 36009 ft 405 kts 256°
2026-05-06 03:40 38.78294 -103.83200 36001 ft 405 kts 256°
2026-05-06 03:41 38.77108 -103.90278 36005 ft 407 kts 256°
2026-05-06 03:41 38.75913 -103.97389 36000 ft 410 kts 256°
2026-05-06 03:42 38.74707 -104.04542 36001 ft 412 kts 256°
2026-05-06 03:42 38.73491 -104.11728 36008 ft 414 kts 256°
2026-05-06 03:43 38.72266 -104.18937 36009 ft 415 kts 256°
2026-05-06 03:43 38.71034 -104.26159 36019 ft 416 kts 256°
2026-05-06 03:44 38.69790 -104.33415 36031 ft 418 kts 256°
2026-05-06 03:44 38.68536 -104.40711 36038 ft 420 kts 256°
2026-05-06 03:45 38.67289 -104.47964 36039 ft 417 kts 255°
2026-05-06 03:45 38.66050 -104.55099 36063 ft 407 kts 255°
2026-05-06 03:46 38.64818 -104.62165 36069 ft 408 kts 255°
2026-05-06 03:46 38.63579 -104.69253 36043 ft 409 kts 255°
2026-05-06 03:47 38.62331 -104.76369 36039 ft 410 kts 255°
2026-05-06 03:47 38.61078 -104.83493 36044 ft 411 kts 255°
2026-05-06 03:48 38.59820 -104.90616 36042 ft 411 kts 255°
2026-05-06 03:48 38.59188 -104.94184 35912 ft 412 kts 255°
2026-05-06 03:48 38.58553 -104.97758 35926 ft 413 kts 255°
2026-05-06 03:49 38.57277 -105.04928 35933 ft 414 kts 255°
2026-05-06 03:49 38.55993 -105.12115 35834 ft 415 kts 255°
2026-05-06 03:50 38.54702 -105.19313 35840 ft 417 kts 255°
2026-05-06 03:50 38.53401 -105.26529 35831 ft 417 kts 255°
2026-05-06 03:51 38.52098 -105.33745 35836 ft 418 kts 255°
2026-05-06 03:51 38.50781 -105.41005 35852 ft 421 kts 255°
2026-05-06 03:52 38.49454 -105.48293 35845 ft 422 kts 255°
2026-05-06 03:52 38.48116 -105.55614 35849 ft 424 kts 255°
2026-05-06 03:53 38.46779 -105.62900 35844 ft 424 kts 255°
2026-05-06 03:53 38.45420 -105.70287 35844 ft 425 kts 255°
2026-05-06 03:54 38.44070 -105.77588 35852 ft 426 kts 255°
2026-05-06 03:54 38.42701 -105.84962 35805 ft 427 kts 255°
2026-05-06 03:55 38.41329 -105.92330 35820 ft 427 kts 255°
2026-05-06 03:55 38.40643 -105.96004 35923 ft 426 kts 255°
2026-05-06 03:55 38.39954 -105.99682 35955 ft 427 kts 255°
2026-05-06 03:56 38.38569 -106.07067 35922 ft 430 kts 256°
2026-05-06 03:56 38.37173 -106.14482 35917 ft 431 kts 255°
2026-05-06 03:57 38.35766 -106.21925 35879 ft 433 kts 255°
2026-05-06 03:57 38.34351 -106.29385 35839 ft 434 kts 255°
2026-05-06 03:58 38.32927 -106.36860 35780 ft 435 kts 255°
2026-05-06 03:58 38.31494 -106.44352 35755 ft 436 kts 255°
2026-05-06 03:59 38.30057 -106.51849 35780 ft 437 kts 255°
2026-05-06 03:59 38.28609 -106.59360 35779 ft 437 kts 255°
2026-05-06 04:00 38.27157 -106.66874 35797 ft 437 kts 255°
2026-05-06 04:00 38.25699 -106.74393 35770 ft 439 kts 255°
2026-05-06 04:01 38.24223 -106.81968 35792 ft 444 kts 255°
2026-05-06 04:01 38.22725 -106.89628 35826 ft 448 kts 255°
2026-05-06 04:02 38.21212 -106.97348 35821 ft 451 kts 255°
2026-05-06 04:02 38.19688 -107.05081 35800 ft 451 kts 255°
2026-05-06 04:03 38.18160 -107.12816 35792 ft 451 kts 255°
2026-05-06 04:03 38.16626 -107.20549 35802 ft 451 kts 255°
2026-05-06 04:04 38.15085 -107.28285 35801 ft 452 kts 255°
2026-05-06 04:04 38.13538 -107.36026 35807 ft 452 kts 255°
2026-05-06 04:05 38.11985 -107.43763 35805 ft 453 kts 256°
2026-05-06 04:05 38.10421 -107.51530 35807 ft 456 kts 255°
2026-05-06 04:06 38.08841 -107.59351 35816 ft 459 kts 255°
2026-05-06 04:06 38.07248 -107.67202 35807 ft 460 kts 255°
2026-05-06 04:07 38.05645 -107.75076 35800 ft 461 kts 255°
2026-05-06 04:07 38.04045 -107.82905 35794 ft 462 kts 255°
2026-05-06 04:08 38.02690 -107.89508 35784 ft 462 kts 255°
2026-05-06 04:08 38.00805 -107.98670 35787 ft 462 kts 255°
2026-05-06 04:09 37.99175 -108.06554 35760 ft 462 kts 255°
2026-05-06 04:09 37.97544 -108.14419 35765 ft 461 kts 255°
2026-05-06 04:10 37.96726 -108.18351 35901 ft 461 kts 255°
2026-05-06 04:10 37.95908 -108.22278 35879 ft 461 kts 255°
2026-05-06 04:10 37.94269 -108.30126 35829 ft 460 kts 255°
2026-05-06 04:11 37.92626 -108.37962 35771 ft 460 kts 255°
2026-05-06 04:11 37.90978 -108.45793 35758 ft 461 kts 255°
2026-05-06 04:12 37.89317 -108.53658 35765 ft 463 kts 255°
2026-05-06 04:12 37.87644 -108.61552 35759 ft 466 kts 255°
2026-05-06 04:13 37.85958 -108.69479 35756 ft 467 kts 255°
2026-05-06 04:13 37.84262 -108.77426 35749 ft 468 kts 255°
2026-05-06 04:14 37.82559 -108.85382 35738 ft 470 kts 255°
2026-05-06 04:14 37.80819 -108.93356 35744 ft 471 kts 253°
2026-05-06 04:15 37.78562 -109.01123 35750 ft 471 kts 250°
2026-05-06 04:15 37.76208 -109.08831 35744 ft 469 kts 249°
2026-05-06 04:16 37.73876 -109.16500 35777 ft 467 kts 249°
2026-05-06 04:16 37.71562 -109.24151 35830 ft 465 kts 249°
2026-05-06 04:17 37.69255 -109.31784 35874 ft 465 kts 249°
2026-05-06 04:17 37.66939 -109.39422 35918 ft 466 kts 249°
2026-05-06 04:18 37.64616 -109.47063 35928 ft 467 kts 249°
2026-05-06 04:18 37.62277 -109.54729 35941 ft 469 kts 249°
2026-05-06 04:19 37.59921 -109.62432 35921 ft 472 kts 249°
2026-05-06 04:19 37.57550 -109.70163 35743 ft 474 kts 249°
2026-05-06 04:20 37.55166 -109.77915 35739 ft 475 kts 249°
2026-05-06 04:20 37.52771 -109.85679 35731 ft 475 kts 249°
2026-05-06 04:21 37.50777 -109.92128 35738 ft 476 kts 249°
2026-05-06 04:21 37.48373 -109.99883 35732 ft 476 kts 250°
2026-05-06 04:22 37.45966 -110.07627 35723 ft 475 kts 249°
2026-05-06 04:23 37.42348 -110.19230 35722 ft 476 kts 250°
2026-05-06 04:23 37.39914 -110.27009 35721 ft 480 kts 249°
2026-05-06 04:24 37.37456 -110.34841 35717 ft 483 kts 250°
2026-05-06 04:24 37.34980 -110.42711 35709 ft 485 kts 250°
2026-05-06 04:25 37.32486 -110.50612 35698 ft 488 kts 250°
2026-05-06 04:25 37.29978 -110.58540 35707 ft 489 kts 249°
2026-05-06 04:26 37.27458 -110.66483 35706 ft 490 kts 249°
2026-05-06 04:26 37.24961 -110.74330 35711 ft 479 kts 249°
2026-05-06 04:27 37.22515 -110.81986 35713 ft 470 kts 249°
2026-05-06 04:27 37.20058 -110.89676 35734 ft 480 kts 249°
2026-05-06 04:28 37.17547 -110.97507 35738 ft 486 kts 249°
2026-05-06 04:28 37.15015 -111.05378 35727 ft 487 kts 249°
2026-05-06 04:29 37.12479 -111.13242 35743 ft 487 kts 250°
2026-05-06 04:29 37.09935 -111.21110 35780 ft 488 kts 250°
2026-05-06 04:30 37.07380 -111.28989 35830 ft 489 kts 249°
2026-05-06 04:30 37.04810 -111.36893 35867 ft 491 kts 248°
2026-05-06 04:31 37.02228 -111.44813 35887 ft 492 kts 249°
2026-05-06 04:31 36.99641 -111.52732 35886 ft 492 kts 249°
2026-05-06 04:31 36.98345 -111.56691 35765 ft 492 kts 250°
2026-05-06 04:32 36.97047 -111.60651 35765 ft 492 kts 249°
2026-05-06 04:32 36.94581 -111.68612 35753 ft 491 kts 251°
2026-05-06 04:33 36.92249 -111.76571 35756 ft 490 kts 251°
2026-05-06 04:33 36.89880 -111.84592 35787 ft 493 kts 251°
2026-05-06 04:34 36.87457 -111.92679 35793 ft 499 kts 251°
2026-05-06 04:34 36.85000 -112.00837 35816 ft 501 kts 251°
2026-05-06 04:35 36.82542 -112.08967 35849 ft 498 kts 251°
2026-05-06 04:35 36.80098 -112.17034 35857 ft 497 kts 251°
2026-05-06 04:36 36.77655 -112.25088 35893 ft 502 kts 251°
2026-05-06 04:36 36.75154 -112.33301 35898 ft 503 kts 251°
2026-05-06 04:37 36.72666 -112.41427 35897 ft 499 kts 250°
2026-05-06 04:37 36.70183 -112.49486 35886 ft 498 kts 250°
2026-05-06 04:38 36.67686 -112.57566 35901 ft 500 kts 250°
2026-05-06 04:38 36.65198 -112.65600 35890 ft 500 kts 250°
2026-05-06 04:39 36.62677 -112.73725 35872 ft 499 kts 250°
2026-05-06 04:39 36.60188 -112.81723 35865 ft 498 kts 250°
2026-05-06 04:40 36.57681 -112.89755 35879 ft 498 kts 250°
2026-05-06 04:40 36.55171 -112.97778 35884 ft 498 kts 250°
2026-05-06 04:41 36.52653 -113.05802 35882 ft 498 kts 250°
2026-05-06 04:41 36.50126 -113.13832 35873 ft 499 kts 250°
2026-05-06 04:42 36.47588 -113.21876 35880 ft 501 kts 250°
2026-05-06 04:42 36.45036 -113.29940 35877 ft 502 kts 250°
2026-05-06 04:43 36.42476 -113.38014 35874 ft 503 kts 250°
2026-05-06 04:43 36.39749 -113.46027 35859 ft 505 kts 246°
2026-05-06 04:44 36.36774 -113.53929 35862 ft 506 kts 246°
2026-05-06 04:44 36.33775 -113.61831 35867 ft 507 kts 246°
2026-05-06 04:45 36.30789 -113.69761 35854 ft 507 kts 246°
2026-05-06 04:45 36.27810 -113.77690 35825 ft 508 kts 246°
2026-05-06 04:46 36.24822 -113.85625 35835 ft 508 kts 246°
2026-05-06 04:46 36.21828 -113.93553 35824 ft 508 kts 246°
2026-05-06 04:47 36.18827 -114.01475 35807 ft 508 kts 246°
2026-05-06 04:47 36.15819 -114.09398 35799 ft 509 kts 246°
2026-05-06 04:48 36.12805 -114.17322 35795 ft 509 kts 246°
2026-05-06 04:48 36.09734 -114.25214 35814 ft 509 kts 242°
2026-05-06 04:49 36.05803 -114.32494 35796 ft 510 kts 231°
2026-05-06 04:49 36.01082 -114.39024 35792 ft 509 kts 228°
2026-05-06 04:50 35.96320 -114.45500 35810 ft 509 kts 228°
2026-05-06 04:50 35.91598 -114.51991 35823 ft 502 kts 229°
2026-05-06 04:50 35.89303 -114.55160 35823 ft 488 kts 229°
2026-05-06 04:51 35.87097 -114.58206 35836 ft 480 kts 229°
2026-05-06 04:51 35.82666 -114.64317 35862 ft 478 kts 229°
2026-05-06 04:52 35.78235 -114.70412 35862 ft 477 kts 229°
2026-05-06 04:52 35.73802 -114.76497 35865 ft 477 kts 228°
2026-05-06 04:53 35.69362 -114.82582 35908 ft 478 kts 228°
2026-05-06 04:53 35.64919 -114.88662 35907 ft 478 kts 228°
2026-05-06 04:54 35.60478 -114.94753 35913 ft 478 kts 229°
2026-05-06 04:54 35.56034 -115.00842 35911 ft 479 kts 228°
2026-05-06 04:55 35.51578 -115.06936 35922 ft 480 kts 228°
2026-05-06 04:55 35.47055 -115.12969 35931 ft 481 kts 227°
2026-05-06 04:56 35.42450 -115.18935 35949 ft 482 kts 227°
2026-05-06 04:56 35.37846 -115.24900 35937 ft 481 kts 227°
2026-05-06 04:57 35.33227 -115.30902 35971 ft 490 kts 227°
2026-05-06 04:57 35.28492 -115.37054 35972 ft 502 kts 227°
2026-05-06 04:58 35.23675 -115.43299 35975 ft 511 kts 227°
2026-05-06 04:58 35.18770 -115.49645 35962 ft 515 kts 227°
2026-05-06 04:59 35.13842 -115.56011 35965 ft 516 kts 227°
2026-05-06 04:59 35.08938 -115.62313 35898 ft 506 kts 227°
2026-05-06 04:59 35.06510 -115.65414 35583 ft 506 kts 226°
2026-05-06 05:00 35.04059 -115.68541 34957 ft 514 kts 226°
2026-05-06 05:00 35.01561 -115.71727 34228 ft 525 kts 226°
2026-05-06 05:00 34.99013 -115.74974 33442 ft 534 kts 226°
2026-05-06 05:00 34.96427 -115.78269 32763 ft 540 kts 225°
2026-05-06 05:01 34.93818 -115.81590 32191 ft 544 kts 225°
2026-05-06 05:01 34.91194 -115.84929 31639 ft 547 kts 225°
2026-05-06 05:01 34.88551 -115.88288 31041 ft 551 kts 225°
2026-05-06 05:01 34.85887 -115.91671 30393 ft 556 kts 225°
2026-05-06 05:02 34.83211 -115.95066 30114 ft 556 kts 225°
2026-05-06 05:02 34.80534 -115.98460 29961 ft 555 kts 225°
2026-05-06 05:02 34.77863 -116.01841 29930 ft 553 kts 225°
2026-05-06 05:03 34.72541 -116.08597 29923 ft 554 kts 225°
2026-05-06 05:03 34.67223 -116.15373 29936 ft 554 kts 225°
2026-05-06 05:04 34.61895 -116.22150 29919 ft 555 kts 225°
2026-05-06 05:04 34.56552 -116.28925 29180 ft 558 kts 225°
2026-05-06 05:04 34.53882 -116.32301 28567 ft 551 kts 225°
2026-05-06 05:05 34.51253 -116.35628 27987 ft 542 kts 225°
2026-05-06 05:05 34.48660 -116.38905 27382 ft 535 kts 225°
2026-05-06 05:05 34.46104 -116.42134 26823 ft 527 kts 225°
2026-05-06 05:05 34.43581 -116.45316 26248 ft 520 kts 225°
2026-05-06 05:06 34.41197 -116.48570 25667 ft 514 kts 234°
2026-05-06 05:06 34.39438 -116.52289 25126 ft 505 kts 246°
2026-05-06 05:06 34.38035 -116.56156 24593 ft 498 kts 247°
2026-05-06 05:06 34.36650 -116.59879 24363 ft 485 kts 246°
2026-05-06 05:07 34.35186 -116.63552 24175 ft 472 kts 244°
2026-05-06 05:07 34.33742 -116.67037 24060 ft 463 kts 244°
2026-05-06 05:07 34.32319 -116.70476 23644 ft 451 kts 245°
2026-05-06 05:07 34.30961 -116.73833 23215 ft 436 kts 245°
2026-05-06 05:08 34.29659 -116.77077 22468 ft 421 kts 245°
2026-05-06 05:08 34.28419 -116.80170 22045 ft 398 kts 245°
2026-05-06 05:08 34.27212 -116.83178 21635 ft 399 kts 245°
2026-05-06 05:08 34.25996 -116.86206 21165 ft 402 kts 245°
2026-05-06 05:09 34.25169 -116.88259 20892 ft 402 kts 245°
2026-05-06 05:09 34.23946 -116.91288 20452 ft 400 kts 245°
2026-05-06 05:09 34.22747 -116.94256 20021 ft 398 kts 245°
2026-05-06 05:09 34.21130 -116.98261 19438 ft 395 kts 246°
2026-05-06 05:10 34.20428 -117.00276 19156 ft 392 kts 252°
2026-05-06 05:10 34.19587 -117.03392 18744 ft 389 kts 255°
2026-05-06 05:10 34.18827 -117.06516 18308 ft 386 kts 255°
2026-05-06 05:10 34.18046 -117.09611 17800 ft 385 kts 255°
2026-05-06 05:11 34.17227 -117.12697 17333 ft 390 kts 254°
2026-05-06 05:11 34.16391 -117.15771 16870 ft 378 kts 253°
2026-05-06 05:11 34.15565 -117.18764 16520 ft 375 kts 253°
2026-05-06 05:11 34.14743 -117.21740 16112 ft 372 kts 253°
2026-05-06 05:12 34.13930 -117.24693 15714 ft 369 kts 253°
2026-05-06 05:12 34.13123 -117.27622 15310 ft 366 kts 254°
2026-05-06 05:12 34.12322 -117.30528 14906 ft 364 kts 254°
2026-05-06 05:12 34.11526 -117.33413 14510 ft 361 kts 254°
2026-05-06 05:13 34.10734 -117.36280 14111 ft 359 kts 254°
2026-05-06 05:13 34.09974 -117.39140 13724 ft 356 kts 255°
2026-05-06 05:13 34.09270 -117.41987 13334 ft 352 kts 256°
2026-05-06 05:13 34.08569 -117.44838 12993 ft 361 kts 256°
2026-05-06 05:14 34.07851 -117.47724 12606 ft 353 kts 255°
2026-05-06 05:14 34.07148 -117.50466 12272 ft 337 kts 253°
2026-05-06 05:14 34.06281 -117.53080 11945 ft 334 kts 248°
2026-05-06 05:14 34.05325 -117.55622 11624 ft 331 kts 247°
2026-05-06 05:15 34.04372 -117.58136 11301 ft 328 kts 247°
2026-05-06 05:15 34.03445 -117.60642 10986 ft 325 kts 248°
2026-05-06 05:15 34.02540 -117.63130 10654 ft 323 kts 248°
2026-05-06 05:15 34.01646 -117.65606 10350 ft 321 kts 248°
2026-05-06 05:16 34.00774 -117.68068 10032 ft 316 kts 252°
2026-05-06 05:16 34.00299 -117.70609 9667 ft 304 kts 265°
2026-05-06 05:16 34.00096 -117.73094 9339 ft 295 kts 267°
2026-05-06 05:16 33.99913 -117.75548 9024 ft 293 kts 267°
2026-05-06 05:17 33.99714 -117.77981 8717 ft 291 kts 266°
2026-05-06 05:17 33.99495 -117.80390 8417 ft 288 kts 265°
2026-05-06 05:17 33.99269 -117.82783 8130 ft 286 kts 265°
2026-05-06 05:17 33.99042 -117.85151 7820 ft 284 kts 264°
2026-05-06 05:18 33.98814 -117.87506 7519 ft 282 kts 264°
2026-05-06 05:18 33.98586 -117.89846 7225 ft 280 kts 264°
2026-05-06 05:18 33.98435 -117.91385 7032 ft 279 kts 264°
2026-05-06 05:18 33.98135 -117.94430 6643 ft 270 kts 263°
2026-05-06 05:19 33.97914 -117.96668 6361 ft 268 kts 263°
2026-05-06 05:19 33.97696 -117.98882 6059 ft 266 kts 263°
2026-05-06 05:19 33.97484 -118.01054 5781 ft 263 kts 264°
2026-05-06 05:19 33.97288 -118.03233 5483 ft 261 kts 264°
2026-05-06 05:20 33.97082 -118.05381 5196 ft 254 kts 263°
2026-05-06 05:20 33.96872 -118.07479 4925 ft 252 kts 263°
2026-05-06 05:20 33.96659 -118.09575 4582 ft 253 kts 263°
2026-05-06 05:20 33.96444 -118.11677 4254 ft 252 kts 263°
2026-05-06 05:21 33.96232 -118.13763 3995 ft 249 kts 263°
2026-05-06 05:21 33.96022 -118.15825 3698 ft 247 kts 263°
2026-05-06 05:21 33.95813 -118.17872 3421 ft 245 kts 263°
2026-05-06 05:21 33.95607 -118.19897 3128 ft 242 kts 263°
2026-05-06 05:22 33.95406 -118.21872 2801 ft 231 kts 263°
2026-05-06 05:22 33.95217 -118.23728 2542 ft 216 kts 263°
2026-05-06 05:22 33.95039 -118.25479 2221 ft 205 kts 263°
2026-05-06 05:22 33.94872 -118.27123 1942 ft 191 kts 262°
2026-05-06 05:23 33.94716 -118.28661 1724 ft 182 kts 262°
2026-05-06 05:23 33.94561 -118.30174 1471 ft 180 kts 262°
2026-05-06 05:23 33.94281 -118.32946 985 ft 152 kts 262°
2026-05-06 05:24 33.94154 -118.34193 820 ft 151 kts 262°
2026-05-06 05:24 33.94030 -118.35444 674 ft 146 kts 263°
2026-05-06 05:24 33.93912 -118.36604 438 ft 138 kts 263°
2026-05-06 05:24 33.93793 -118.37744 259 ft 134 kts 262°
2026-05-06 05:25 33.93685 -118.38845 133 ft 124 kts 262°
2026-05-06 05:25 33.93597 -118.39649 127 ft 70 kts 263°
2026-05-06 05:25 33.93563 -118.40051 130 ft 28 kts 271°
2026-05-06 05:25 33.93592 -118.40261 130 ft 19 kts 288°
2026-05-06 05:26 33.93623 -118.40394 126 ft 14 kts 277°
2026-05-06 05:26 33.93624 -118.40465 130 ft 2 kts 265°
2026-05-06 05:26 33.93622 -118.40486 125 ft 3 kts 264°
2026-05-06 05:26 33.93620 -118.40511 126 ft 3 kts 262°
2026-05-06 05:27 33.93616 -118.40542 128 ft 4 kts 262°
2026-05-06 05:27 33.93612 -118.40584 127 ft 6 kts 262°
2026-05-06 05:27 33.93606 -118.40635 126 ft 7 kts 262°
2026-05-06 05:27 33.93599 -118.40693 128 ft 8 kts 262°
2026-05-06 05:28 33.93592 -118.40760 127 ft 8 kts 262°
2026-05-06 05:28 33.93599 -118.40831 126 ft 9 kts 287°
2026-05-06 05:28 33.93634 -118.40893 126 ft 9 kts 330°
2026-05-06 05:28 33.93696 -118.40904 126 ft 9 kts 354°
2026-05-06 05:29 33.93761 -118.40911 128 ft 9 kts 358°
2026-05-06 05:29 33.93790 -118.40850 129 ft 10 kts 85°
2026-05-06 05:29 33.93796 -118.40797 126 ft 10 kts 82°
2026-05-06 05:29 33.93845 -118.40721 126 ft 10 kts
2026-05-06 05:30 33.93889 -118.40758 126 ft 7 kts 305°
2026-05-06 05:30 33.93920 -118.40806 126 ft 7 kts 305°
2026-05-06 05:30 33.93942 -118.40861 125 ft 7 kts 293°
2026-05-06 05:30 33.93958 -118.40907 125 ft 4 kts 291°
2026-05-06 05:31 33.93958 -118.40909 125 ft 0 kts 290°